This is the latest recevied weather packets stored in our database for station/object KC9MWQ-13. If no packets are shown the sender has not sent any weather packets the latest 10 day(s).
| Time | Temp. | Humidity | Pressure | Rain* | Wind** | Luminosity | Snow |
|---|---|---|---|---|---|---|---|
| 1777458773 | 11.11° C | 99% | 1012.7 hPa | 0 mm | - | 0 W/m² | - |
| 1777458469 | 11.11° C | 99% | 1012.7 hPa | 0 mm | - | 0 W/m² | - |
| 1777458166 | 11.11° C | 99% | 1012.5 hPa | 0 mm | - | 0 W/m² | - |
| 1777457861 | 11.11° C | 99% | 1012.6 hPa | 0 mm | - | 0 W/m² | - |
| 1777457557 | 11.11° C | 99% | 1012.4 hPa | 0 mm | - | 0 W/m² | - |
| 1777457252 | 11.11° C | 99% | 1012.5 hPa | 0 mm | - | 0 W/m² | - |
| 1777456948 | 11.11° C | 99% | 1012.8 hPa | 0 mm | - | 0 W/m² | - |
| 1777456644 | 11.11° C | 99% | 1012.7 hPa | 0 mm | - | 0 W/m² | - |
| 1777456339 | 11.11° C | 99% | 1012.8 hPa | 0 mm | - | 0 W/m² | - |
| 1777456036 | 11.11° C | 99% | 1012.9 hPa | 0 mm | - | 0 W/m² | - |
| 1777455732 | 11.11° C | 99% | 1012.8 hPa | 0 mm | - | 0 W/m² | - |
| 1777455429 | 11.11° C | 99% | 1012.6 hPa | 0 mm | - | 0 W/m² | - |
| 1777455125 | 11.11° C | 99% | 1013 hPa | 0 mm | - | 0 W/m² | - |
| 1777454823 | 11.11° C | 99% | 1013.2 hPa | 0 mm | - | 0 W/m² | - |
| 1777454518 | 11.11° C | 99% | 1012.9 hPa | 0 mm | - | 0 W/m² | - |
| 1777454214 | 11.11° C | 99% | 1012.6 hPa | 0 mm | - | 0 W/m² | - |
| 1777453911 | 11.11° C | 99% | 1012.8 hPa | 1.27 mm | - | 0 W/m² | - |
| 1777453608 | 11.11° C | 99% | 1012.8 hPa | 3.05 mm | - | 0 W/m² | - |
| 1777453305 | 11.11° C | 99% | 1013.1 hPa | 3.05 mm | - | 0 W/m² | - |
| 1777453002 | 11.11° C | 99% | 1013.2 hPa | 1.27 mm | - | 0 W/m² | - |
| 1777452700 | 11.11° C | 99% | 1012.6 hPa | 1.78 mm | - | 0 W/m² | - |
| 1777452395 | 10.56° C | 99% | 1013.1 hPa | 1.78 mm | - | 0 W/m² | - |
| 1777452091 | 10.56° C | 99% | 1013 hPa | 0 mm | - | 0 W/m² | - |
| 1777451786 | 10.56° C | 99% | 1013 hPa | 0 mm | - | 0 W/m² | - |
| 1777451483 | 10.56° C | 99% | 1013 hPa | 0 mm | - | 0 W/m² | - |
* Rain latest hour (hover to see other rain measurements)
** Current wind speed in m/s (hover to see current wind gust speed)